FW2834 Weather Reports


Display with metric or nautical units.
time (UTC)temp
F
wind
direction
speed
MPH
gust
MPH
rain 1hr
in
rain 24hr
in
rain mn
in
humidity
%
barometer
mb
20260901143557 82 144 0.0 2.0 0.00 0.00 0.00 70 1016.9
20260901143106 82 244 0.0 2.0 0.00 0.00 0.00 71 1016.9
20260901142554 81 211 0.0 0.0 0.00 0.00 0.00 73 1017.0
20260901142052 80 209 0.0 0.0 0.00 0.00 0.00 74 1017.1
20260901141557 79 259 0.0 0.0 0.00 0.00 0.00 75 1017.2
20260901141049 79 259 0.0 0.0 0.00 0.00 0.00 76 1017.2
20260901140548 78 259 0.0 0.0 0.00 0.00 0.00 78 1017.2
20260901140047 77 254 0.0 0.0 0.00 0.00 0.00 81 1017.2
20260901135546 77 327 0.0 0.0 0.00 0.00 0.00 85 1017.1
20260901135045 76 322 0.0 0.0 0.00 0.00 0.00 87 1017.1
20260901134543 76 322 0.0 0.0 0.00 0.00 0.00 87 1017.0
20260901134042 75 322 0.0 0.0 0.00 0.00 0.00 88 1017.0
20260901133543 75 322 0.0 0.0 0.00 0.00 0.00 88 1016.9
20260901133046 74 321 0.0 0.0 0.00 0.00 0.00 88 1017.0
20260901132539 74 321 0.0 1.0 0.00 0.00 0.00 88 1016.9
20260901132037 74 321 0.0 1.0 0.00 0.00 0.00 88 1017.0
20260901131541 74 329 0.0 1.0 0.00 0.00 0.00 88 1016.9
20260901131040 73 329 0.0 1.0 0.00 0.00 0.00 88 1016.8
20260901130538 73 329 0.0 1.0 0.00 0.00 0.00 88 1016.9
20260901130037 73 329 0.0 1.0 0.00 0.00 0.00 88 1017.0
20260901125535 73 99 0.0 0.0 0.00 0.00 0.00 87 1017.1
20260901125036 72 99 0.0 1.0 0.00 0.00 0.00 86 1017.1
20260901124535 72 99 0.0 1.0 0.00 0.00 0.00 86 1017.1
20260901124034 72 99 0.0 0.0 0.00 0.00 0.00 85 1017.1
20260901123533 72 99 0.0 0.0 0.00 0.00 0.00 85 1017.1
20260901123038 72 99 0.0 1.0 0.00 0.00 0.00 84 1017.2
20260901122531 71 99 0.0 0.0 0.00 0.00 0.00 83 1017.1
20260901122032 71 99 0.0 0.0 0.00 0.00 0.00 82 1017.1
20260901121530 71 99 0.0 0.0 0.00 0.00 0.00 81 1017.1
20260901121032 71 99 0.0 0.0 0.00 0.00 0.00 81 1017.2
20260901120527 71 99 0.0 0.0 0.00 0.00 0.00 80 1017.0
20260901120027 71 99 0.0 0.0 0.00 0.00 0.00 80 1016.9
20260901115526 71 99 0.0 0.0 0.00 0.00 0.00 80 1016.8
20260901115030 71 99 0.0 0.0 0.00 0.00 0.00 79 1016.7
20260901114527 71 99 0.0 0.0 0.00 0.00 0.00 79 1016.7
20260901114024 71 99 0.0 0.0 0.00 0.00 0.00 79 1016.6
20260901113523 71 99 0.0 0.0 0.00 0.00 0.00 79 1016.5
20260901113022 71 99 0.0 0.0 0.00 0.00 0.00 79 1016.4
20260901112521 71 99 0.0 0.0 0.00 0.00 0.00 78 1016.4
20260901112025 71 99 0.0 0.0 0.00 0.00 0.00 78 1016.4
20260901111521 71 99 0.0 0.0 0.00 0.00 0.00 78 1016.3
20260901111020 71 99 0.0 0.0 0.00 0.00 0.00 78 1016.2
20260901110519 71 99 0.0 0.0 0.00 0.00 0.00 78 1016.1
20260901110120 71 99 0.0 0.0 0.00 0.00 0.00 78 1016.1
20260901105521 71 99 0.0 0.0 0.00 0.00 0.00 78 1016.1
20260901105018 71 99 0.0 0.0 0.00 0.00 0.00 78 1016.1
20260901104521 71 99 0.0 0.0 0.00 0.00 0.00 78 1016.1
20260901104018 71 99 0.0 0.0 0.00 0.00 0.00 78 1016.0
20260901103516 71 99 0.0 0.0 0.00 0.00 0.00 78 1016.0
20260901103016 71 99 0.0 0.0 0.00 0.00 0.00 78 1015.9
20260901102516 71 99 0.0 0.0 0.00 0.00 0.00 77 1016.0
20260901102016 71 99 0.0 0.0 0.00 0.00 0.00 77 1016.0
20260901101516 71 99 0.0 0.0 0.00 0.00 0.00 77 1016.0
20260901101015 71 99 0.0 0.0 0.00 0.00 0.00 76 1015.9
20260901100515 71 99 0.0 0.0 0.00 0.00 0.00 76 1015.8
20260901100015 71 99 0.0 0.0 0.00 0.00 0.00 76 1015.7
20260901095513 71 99 0.0 0.0 0.00 0.00 0.00 76 1015.7
20260901095013 71 99 0.0 0.0 0.00 0.00 0.00 76 1015.7
20260901094513 71 99 0.0 0.0 0.00 0.00 0.00 76 1015.7
20260901094012 71 99 0.0 0.0 0.00 0.00 0.00 76 1015.6
20260901093512 72 99 0.0 0.0 0.00 0.00 0.00 76 1015.6
20260901093011 72 99 0.0 0.0 0.00 0.00 0.00 76 1015.6
20260901092511 72 99 0.0 0.0 0.00 0.00 0.00 76 1015.5
20260901092011 72 99 0.0 0.0 0.00 0.00 0.00 76 1015.5
20260901091511 72 99 0.0 0.0 0.00 0.00 0.00 76 1015.6
20260901091010 72 99 0.0 0.0 0.00 0.00 0.00 76 1015.6
20260901090509 72 99 0.0 0.0 0.00 0.00 0.00 76 1015.5
20260901090016 72 99 0.0 0.0 0.00 0.00 0.00 75 1015.5
20260901085510 72 99 0.0 0.0 0.00 0.00 0.00 75 1015.4
20260901085008 72 99 0.0 0.0 0.00 0.00 0.00 75 1015.3
20260901084508 72 99 0.0 0.0 0.00 0.00 0.00 75 1015.3
20260901084008 73 99 0.0 0.0 0.00 0.00 0.00 75 1015.3
20260901083508 73 99 0.0 0.0 0.00 0.00 0.00 75 1015.3
20260901083007 73 99 0.0 0.0 0.00 0.00 0.00 75 1015.3
20260901082507 73 99 0.0 0.0 0.00 0.00 0.00 75 1015.2
20260901082005 73 99 0.0 0.0 0.00 0.00 0.00 75 1015.3
20260901081505 73 99 0.0 0.0 0.00 0.00 0.00 75 1015.3
20260901081005 73 99 0.0 0.0 0.00 0.00 0.00 75 1015.3
20260901080504 73 99 0.0 0.0 0.00 0.00 0.00 75 1015.3
20260901080006 73 99 0.0 0.0 0.00 0.00 0.00 75 1015.3
20260901075504 74 99 0.0 0.0 0.00 0.00 0.00 74 1015.3
20260901075007 74 99 0.0 0.0 0.00 0.00 0.00 75 1015.2
20260901074502 74 99 0.0 0.0 0.00 0.00 0.00 75 1015.1
20260901074004 74 99 0.0 0.0 0.00 0.00 0.00 74 1015.0
20260901073502 74 99 0.0 0.0 0.00 0.00 0.00 74 1015.0
20260901073001 74 99 0.0 0.0 0.00 0.00 0.00 74 1015.0
20260901072501 74 99 0.0 1.0 0.00 0.00 0.00 74 1014.9
20260901072101 74 99 0.0 1.0 0.00 0.00 0.00 74 1014.9
20260901071606 74 99 0.0 0.0 0.00 0.00 0.00 74 1014.9
20260901071059 74 99 0.0 0.0 0.00 0.00 0.00 74 1015.0
20260901070559 74 99 0.0 0.0 0.00 0.00 0.00 74 1015.0
20260901070059 75 99 0.0 0.0 0.00 0.00 0.00 74 1014.9
20260901065600 75 99 0.0 0.0 0.00 0.00 0.00 75 1014.9
20260901065058 75 99 0.0 0.0 0.00 0.00 0.00 75 1014.8
20260901064558 75 99 0.0 1.0 0.00 0.00 0.00 75 1014.7
20260901064102 75 99 0.0 1.0 0.00 0.00 0.00 75 1014.7
20260901063557 75 99 0.0 0.0 0.00 0.00 0.00 75 1014.7
20260901063102 75 99 0.0 0.0 0.00 0.00 0.00 75 1014.6
20260901062555 75 99 0.0 0.0 0.00 0.00 0.00 75 1014.7
20260901062056 75 99 0.0 1.0 0.00 0.00 0.00 75 1014.7
20260901061555 75 99 0.0 1.0 0.00 0.00 0.00 75 1014.6
20260901061055 75 99 0.0 1.0 0.00 0.00 0.00 75 1014.6
20260901060555 75 99 0.0 0.0 0.00 0.00 0.00 75 1014.8
20260901060053 75 99 0.0 0.0 0.00 0.00 0.00 75 1014.9
20260901055552 75 99 0.0 0.0 0.00 0.00 0.00 75 1015.1
20260901055052 75 99 0.0 0.0 0.00 0.00 0.00 75 1015.1
20260901054554 75 99 0.0 0.0 0.00 0.00 0.00 75 1015.2
20260901054055 75 99 0.0 0.0 0.00 0.00 0.00 75 1015.1
20260901053551 75 99 0.0 0.0 0.00 0.00 0.00 75 1015.3
20260901053059 75 99 0.0 0.0 0.00 0.00 0.00 75 1015.3
20260901052550 75 99 0.0 0.0 0.00 0.00 0.00 75 1015.3
20260901052049 75 99 0.0 0.0 0.00 0.00 0.00 75 1015.2
20260901051553 75 99 0.0 0.0 0.00 0.00 0.00 75 1015.2
20260901051049 75 99 0.0 0.0 0.00 0.00 0.00 75 1015.3
20260901050552 75 99 0.0 0.0 0.00 0.00 0.00 74 1015.3
20260901050047 75 99 0.0 0.0 0.00 0.00 0.00 74 1015.4
20260901045546 75 99 0.0 0.0 0.00 0.00 0.00 74 1015.4
20260901045046 75 99 0.0 0.0 0.00 0.00 0.00 74 1015.6
20260901044552 75 99 0.0 0.0 0.00 0.00 0.00 74 1015.7
20260901044045 75 99 0.0 0.0 0.00 0.00 0.00 73 1015.6
20260901043546 75 99 0.0 0.0 0.00 0.00 0.00 73 1015.7
20260901043044 76 99 0.0 0.0 0.00 0.00 0.00 73 1015.7
20260901042542 76 99 0.0 0.0 0.00 0.00 0.00 72 1015.8
20260901042042 76 99 0.0 0.0 0.00 0.00 0.00 73 1015.8
20260901041603 76 99 0.0 0.0 0.00 0.00 0.00 73 1015.9
20260901041043 76 99 0.0 0.0 0.00 0.00 0.00 73 1015.8
20260901040539 76 99 0.0 0.0 0.00 0.00 0.00 72 1015.8
20260901040049 76 99 0.0 0.0 0.00 0.00 0.00 72 1015.7
20260901035538 76 99 0.0 0.0 0.00 0.00 0.00 72 1015.7
20260901035037 76 99 0.0 0.0 0.00 0.00 0.00 72 1015.8
20260901034537 76 99 0.0 0.0 0.00 0.00 0.00 72 1015.8
20260901034037 76 99 0.0 0.0 0.00 0.00 0.00 72 1015.8
20260901033540 76 99 0.0 0.0 0.00 0.00 0.00 71 1015.9
20260901033036 76 99 0.0 0.0 0.00 0.00 0.00 71 1015.9
20260901032536 77 99 0.0 0.0 0.00 0.00 0.00 71 1016.0
20260901032038 77 99 0.0 0.0 0.00 0.00 0.00 71 1016.1
20260901031535 77 99 0.0 0.0 0.00 0.00 0.00 71 1015.9
20260901031035 77 99 0.0 0.0 0.00 0.00 0.00 71 1016.1
20260901030537 77 99 0.0 0.0 0.00 0.00 0.00 71 1016.0
20260901030037 77 99 0.0 0.0 0.00 0.00 0.00 70 1016.0
20260901025536 77 99 0.0 0.0 0.00 0.00 0.00 70 1016.1
20260901025036 77 99 0.0 0.0 0.00 0.00 0.00 70 1016.0
20260901024539 77 99 0.0 0.0 0.00 0.00 0.00 70 1016.0
20260901024036 78 99 0.0 0.0 0.00 0.00 0.00 70 1016.0
20260901023536 78 99 0.0 0.0 0.00 0.00 0.00 70 1016.1
20260901023034 78 99 0.0 0.0 0.00 0.00 0.00 70 1016.2
20260901022534 78 99 0.0 0.0 0.00 0.00 0.00 69 1016.1
20260901022034 78 99 0.0 0.0 0.00 0.00 0.00 69 1016.1
20260901021536 78 99 0.0 0.0 0.00 0.00 0.00 69 1016.0
20260901021034 78 99 0.0 0.0 0.00 0.00 0.00 69 1016.1
20260901020533 79 99 0.0 0.0 0.00 0.00 0.00 68 1016.1
20260901020033 79 99 0.0 0.0 0.00 0.00 0.00 68 1016.2
20260901015533 79 99 0.0 0.0 0.00 0.00 0.00 68 1016.1
20260901015033 79 99 0.0 0.0 0.00 0.00 0.00 68 1016.2
20260901014533 80 99 0.0 0.0 0.00 0.00 0.00 68 1016.0
20260901014033 80 99 0.0 0.0 0.00 0.00 0.00 67 1016.0
20260901013533 80 99 0.0 0.0 0.00 0.00 0.00 67 1016.0
20260901013032 80 99 0.0 0.0 0.00 0.00 0.00 66 1015.8
20260901012531 81 99 0.0 0.0 0.00 0.00 0.00 66 1015.8
20260901012031 81 99 0.0 0.0 0.00 0.00 0.00 66 1015.9
20260901011537 81 99 0.0 0.0 0.00 0.00 0.00 65 1015.8
20260901011031 81 99 0.0 0.0 0.00 0.00 0.00 65 1015.8
20260901010534 82 99 0.0 0.0 0.00 0.00 0.00 64 1015.8
20260901010045 82 99 0.0 0.0 0.00 0.00 0.00 64 1015.7
20260901005531 82 99 0.0 0.0 0.00 0.00 0.00 63 1015.6
20260901005030 83 99 0.0 0.0 0.00 0.00 0.00 63 1015.5
20260901004534 83 99 0.0 0.0 0.00 0.00 0.00 62 1015.4
20260901004031 83 99 0.0 0.0 0.00 0.00 0.00 62 1015.4
20260901003530 84 99 0.0 0.0 0.00 0.00 0.00 62 1015.3
20260901003030 84 99 0.0 0.0 0.00 0.00 0.00 61 1015.3
20260901002530 84 99 0.0 0.0 0.00 0.00 0.00 61 1015.2
20260901002030 85 99 0.0 0.0 0.00 0.00 0.00 61 1015.1
20260901001530 85 99 0.0 0.0 0.00 0.00 0.00 61 1015.0
20260901001029 85 99 0.0 0.0 0.00 0.00 0.00 61 1015.0
20260901000529 85 99 0.0 0.0 0.00 0.00 0.00 60 1014.9
20260901000029 86 99 0.0 0.0 0.00 0.00 0.00 60 1014.8
20260831235529 86 99 0.0 0.0 0.00 0.00 0.00 59 1014.8
20260831235031 86 99 0.0 0.0 0.00 0.00 0.00 59 1014.7
20260831234529 86 99 0.0 0.0 0.00 0.00 0.00 58 1014.7
20260831234029 87 99 0.0 1.0 0.00 0.00 0.00 58 1014.6
20260831233528 87 99 0.0 2.0 0.00 0.00 0.00 57 1014.5
20260831233038 87 99 0.0 2.0 0.00 0.00 0.00 56 1014.5
20260831232527 87 99 0.0 1.0 0.00 0.00 0.00 56 1014.5
20260831232031 88 100 0.0 1.0 0.00 0.00 0.00 55 1014.4
20260831231535 88 94 0.0 1.0 0.00 0.00 0.00 56 1014.4
20260831231027 88 94 0.0 3.0 0.00 0.00 0.00 56 1014.4
20260831230528 88 94 0.0 3.0 0.00 0.00 0.00 56 1014.4
20260831230027 88 70 0.0 1.0 0.00 0.00 0.00 55 1014.4
20260831225526 89 76 0.0 3.0 0.00 0.00 0.00 55 1014.4
20260831225029 89 76 0.0 3.0 0.00 0.00 0.00 54 1014.4
20260831224526 89 218 0.0 0.0 0.00 0.00 0.00 54 1014.6
20260831224024 89 218 0.0 1.0 0.00 0.00 0.00 54 1014.7
20260831223524 89 218 0.0 1.0 0.00 0.00 0.00 53 1014.7
20260831223023 90 219 0.0 1.0 0.00 0.00 0.00 53 1014.7
20260831222524 90 223 0.0 1.0 0.00 0.00 0.00 52 1014.8
20260831222022 90 197 0.0 1.0 0.00 0.00 0.00 52 1014.9
20260831221530 90 197 0.0 1.0 0.00 0.00 0.00 52 1015.0
20260831221021 90 197 0.0 1.0 0.00 0.00 0.00 52 1015.0
20260831220524 90 197 0.0 1.0 0.00 0.00 0.00 51 1015.1
20260831220024 90 197 0.0 3.0 0.00 0.00 0.00 51 1015.3
20260831215521 90 197 0.0 3.0 0.00 0.00 0.00 50 1015.2
20260831215020 90 290 0.0 3.0 0.00 0.00 0.00 49 1015.1
20260831214517 90 259 0.0 2.0 0.00 0.00 0.00 50 1015.3
20260831214017 91 259 0.0 2.0 0.00 0.00 0.00 50 1015.3
20260831213517 91 209 0.0 1.0 0.00 0.00 0.00 49 1015.4
20260831213017 91 199 0.0 1.0 0.00 0.00 0.00 50 1015.5
20260831212516 91 250 0.0 1.0 0.00 0.00 0.00 48 1015.4
20260831212116 91 241 0.0 1.0 0.00 0.00 0.00 47 1015.5
20260831211516 91 232 0.0 1.0 0.00 0.00 0.00 50 1015.4
20260831211017 91 184 0.0 1.0 0.00 0.00 0.00 49 1015.4
20260831210514 91 184 0.0 1.0 0.00 0.00 0.00 47 1015.6
20260831210018 91 194 0.0 0.0 0.00 0.00 0.00 49 1015.6
20260831205514 91 194 0.0 2.0 0.00 0.00 0.00 48 1015.7
20260831205017 91 194 0.0 2.0 0.00 0.00 0.00 48 1015.8
20260831204513 91 195 0.0 1.0 0.00 0.00 0.00 49 1015.8
20260831204012 91 192 0.0 2.0 0.00 0.00 0.00 48 1015.8
20260831203512 91 184 0.0 2.0 0.00 0.00 0.00 48 1016.0
20260831203012 92 63 0.0 2.0 0.00 0.00 0.00 49 1016.0
20260831202511 92 264 0.0 2.0 0.00 0.00 0.00 46 1016.1
20260831202011 92 177 0.0 2.0 0.00 0.00 0.00 47 1016.0
20260831201521 92 200 0.0 2.0 0.00 0.00 0.00 49 1016.0
20260831201010 92 209 0.0 2.0 0.00 0.00 0.00 50 1016.2
20260831200510 92 214 0.0 2.0 0.00 0.00 0.00 51 1016.2
20260831200011 92 213 0.0 2.0 0.00 0.00 0.00 49 1016.3
20260831195509 92 281 0.0 2.0 0.00 0.00 0.00 50 1016.4
20260831195008 92 279 0.0 1.0 0.00 0.00 0.00 52 1016.4
20260831194507 92 175 0.0 2.0 0.00 0.00 0.00 51 1016.4
20260831194007 92 175 0.0 2.0 0.00 0.00 0.00 52 1016.5
20260831193507 92 258 0.0 2.0 0.00 0.00 0.00 50 1016.5
20260831193007 92 219 0.0 2.0 0.00 0.00 0.00 49 1016.5
20260831192504 92 228 0.0 2.0 0.00 0.00 0.00 50 1016.5
20260831192004 92 236 0.0 2.0 0.00 0.00 0.00 50 1016.5
20260831191504 92 267 0.0 2.0 0.00 0.00 0.00 52 1016.5
20260831191004 92 264 0.0 3.0 0.00 0.00 0.00 53 1016.6
20260831190501 91 279 0.0 3.0 0.00 0.00 0.00 56 1016.6
20260831190001 91 279 0.0 2.0 0.00 0.00 0.00 53 1016.7
20260831185601 91 281 0.0 2.0 0.00 0.00 0.00 55 1016.7
20260831185102 91 281 0.0 2.0 0.00 0.00 0.00 54 1016.8
20260831184600 91 281 0.0 3.0 0.00 0.00 0.00 55 1016.9
20260831184102 91 9 0.0 3.0 0.00 0.00 0.00 55 1017.0
20260831183558 91 66 0.0 3.0 0.00 0.00 0.00 55 1017.0
20260831183106 90 180 0.0 3.0 0.00 0.00 0.00 55 1017.0
20260831182556 90 283 1.0 3.0 0.00 0.00 0.00 57 1017.1
20260831182100 90 360 0.0 2.0 0.00 0.00 0.00 57 1017.0
20260831181554 90 68 0.0 2.0 0.00 0.00 0.00 58 1017.0
20260831181054 89 63 0.0 2.0 0.00 0.00 0.00 57 1017.1
20260831180553 89 62 0.0 3.0 0.00 0.00 0.00 59 1017.2
20260831180110 89 262 0.0 3.0 0.00 0.00 0.00 59 1017.2
20260831175554 89 215 1.0 3.0 0.00 0.00 0.00 58 1017.2
20260831175054 89 330 1.0 3.0 0.00 0.00 0.00 60 1017.2
20260831174553 89 350 0.0 2.0 0.00 0.00 0.00 60 1017.3
20260831174051 89 9 0.0 2.0 0.00 0.00 0.00 61 1017.2
20260831173551 89 9 0.0 2.0 0.00 0.00 0.00 59 1017.3
20260831173050 89 347 0.0 2.0 0.00 0.00 0.00 59 1017.3
20260831172550 89 360 0.0 3.0 0.00 0.00 0.00 58 1017.4
20260831172049 89 27 1.0 3.0 0.00 0.00 0.00 57 1017.4
20260831171552 90 329 0.0 4.0 0.00 0.00 0.00 57 1017.4
20260831171049 90 321 1.0 4.0 0.00 0.00 0.00 59 1017.4
20260831170549 90 300 0.0 3.0 0.00 0.00 0.00 59 1017.4
20260831170049 90 301 0.0 3.0 0.00 0.00 0.00 59 1017.4
20260831165549 90 341 0.0 3.0 0.00 0.00 0.00 59 1017.4
20260831165047 90 92 0.0 5.0 0.00 0.00 0.00 59 1017.5
20260831164550 90 9 0.0 5.0 0.00 0.00 0.00 59 1017.6
20260831164050 90 156 0.0 3.0 0.00 0.00 0.00 58 1017.7
20260831163546 90 298 1.0 3.0 0.00 0.00 0.00 58 1017.6
20260831163045 89 277 0.0 3.0 0.00 0.00 0.00 59 1017.7
20260831162544 89 262 1.0 6.0 0.00 0.00 0.00 59 1017.7
20260831162045 89 290 1.0 6.0 0.00 0.00 0.00 62 1017.6
20260831161549 89 255 0.0 3.0 0.00 0.00 0.00 63 1017.7
20260831161040 88 126 0.0 3.0 0.00 0.00 0.00 61 1017.7
20260831160539 88 288 1.0 3.0 0.00 0.00 0.00 61 1017.8
20260831160038 87 267 0.0 3.0 0.00 0.00 0.00 62 1017.7
20260831155537 87 331 0.0 2.0 0.00 0.00 0.00 63 1017.7
20260831155036 87 348 0.0 3.0 0.00 0.00 0.00 64 1017.7
20260831154538 86 345 0.0 3.0 0.00 0.00 0.00 64 1017.7
20260831154032 86 223 1.0 3.0 0.00 0.00 0.00 64 1017.6
20260831153531 85 142 0.0 3.0 0.00 0.00 0.00 66 1017.6
20260831153030 85 134 0.0 3.0 0.00 0.00 0.00 66 1017.6
20260831152531 84 238 0.0 2.0 0.00 0.00 0.00 66 1017.6
20260831152027 84 284 0.0 2.0 0.00 0.00 0.00 68 1017.6
20260831151526 83 314 0.0 2.0 0.00 0.00 0.00 71 1017.6
20260831151028 82 314 0.0 2.0 0.00 0.00 0.00 71 1017.7
20260831150524 81 317 0.0 0.0 0.00 0.00 0.00 72 1017.8
20260831150024 81 317 0.0 2.0 0.00 0.00 0.00 72 1017.8
20260831145520 80 317 0.0 2.0 0.00 0.00 0.00 73 1017.8
20260831145019 80 126 0.0 2.0 0.00 0.00 0.00 74 1017.9
20260831144518 79 115 0.0 1.0 0.00 0.00 0.00 75 1017.8
20260831144020 78 115 0.0 0.0 0.00 0.00 0.00 76 1017.8